ABS-4 (MOBISAT-1)

Last updated on Thu Mar 05 2026 00:02:55 GMT+0000 (Coordinated Universal Time)

1 28184U 04007A 26063.58916272 .00000031 00000+0 00000+0 0 9993 2 28184 5.7766 73.2797 0005365 273.4152 88.7023 1.00271969 51294
UTC large
Height (km)
Speed (km/s)
/
Latitude / Longitude
Inclination (degrees)
Orbital Period (minutes)
Azimuth
Elevation
Range (km)
Doppler Factor

Next 0 passes for location: London (51.5072 / 0.1276)

Sorry there are no passes over London.